Location: Buchberg
(46.9333°N, 15.8500°E)
Time: 18:32:22
(UTC+00:00)

Cosmos 2221 Rocket - Pass Details

Date: 14 July 2020
Orbit: 619 x 649 km, 82.5° (Epoch: 05 August)

Event Time Altitude Azimuth Distance (km) Brightness Sun altitude
Rises 00:32:08 0° 356° (N) 2,913 8.1 -18.5°
Reaches altitude 10° 00:34:28 10° 2° (N) 2,000 7.2 -18.4°
Maximum altitude 00:38:43 46° 76° (ENE) 842 4.5 -18.1°
Enters shadow 00:41:59 16° 145° (SE) 1,624 5.4 -17.9°
